Location: Hopewell Observatory
(38.8698°N, 77.6988°W)
Time: 10:52:43
(UTC-04:00)

Daily predictions for brighter satellites

Satellite Brightness Start Highest point End
(mag) Time Altitude Azimuth Time Altitude Azimuth Time Altitude Azimuth
SL-24 R/B - RUBIN 2 4.4 20:00:38 10° SSW 20:06:22 71° ESE 20:12:48 10° NE
Meteor 2-15 4.4 20:01:31 10° N 20:07:36 78° E 20:13:39 10° S
CZ-2D R/B 4.2 20:06:11 10° SE 20:09:33 29° ENE 20:12:57 10° N
Lacrosse 5 rocket 1.3 20:06:25 10° NW 20:10:09 70° SW 20:13:44 10° SE
Cosmos 2084 3.9 20:06:31 10° NNW 20:10:26 44° NE 20:14:32 10° SE
OTV 4 2.6 20:10:24 10° WSW 20:12:37 19° SSW 20:14:50 10° SSE
Centaur D-1A AC-32 4.1 20:10:58 10° SW 20:13:59 15° SSW 20:16:08 10° SSE
Cosmos 1821 Rocket 4.3 20:07:59 10° SSW 20:14:04 75° W 20:20:10 10° N
Cosmos 2297 Rocket 2.2 20:08:32 10° NNW 20:14:11 67° ENE 20:19:48 10° SSE
Meteor 2-15 Rocket 4.4 20:08:58 10° N 20:15:04 76° E 20:21:07 10° SSE
FengYun 1-2 T 4.3 20:09:46 10° SSE 20:15:21 68° ENE 20:20:54 10° N
Cosmos 2082 3.8 20:11:20 10° NNW 20:16:59 89° WSW 20:22:36 10° SSE
Cosmos 1605 Rocket 4.0 20:11:07 10° S 20:17:23 67° E 20:23:35 10° NNE
SJ-6B 4.5 20:13:57 10° SSW 20:17:24 36° W 20:20:53 10° NNW
Cosmos 2298 Rocket 4.4 20:16:15 10° N 20:21:22 46° ENE 20:26:28 10° SE
Cosmos 1626 Rocket 3.8 20:17:32 10° N 20:21:47 47° E 20:25:58 10° SSE
Cosmos 220 Rocket 3.9 20:19:05 10° NNW 20:23:17 67° ENE 20:27:28 10° SSE
USA 186 2.6 20:22:01 10° SE 20:24:36 27° ENE 20:27:02 10° NNE
Cosmos 1455 Rocket 3.5 20:20:47 10° SSW 20:25:04 67° W 20:29:26 10° N
ALOS 2.4 20:21:08 10° SSE 20:25:41 57° ENE 20:30:17 10° N
OAO 2 Rocket 3.6 20:24:26 10° W 20:29:18 56° S 20:33:36 14° ESE
Cosmos 1515 4.2 20:26:49 10° N 20:30:28 40° E 20:34:05 10° SSE
ERS-1 Rocket 4.2 20:28:46 12° ESE 20:32:20 24° ENE 20:36:18 10° NNE
Cosmos 1602 Rocket 3.6 20:28:04 10° N 20:32:30 64° E 20:36:51 10° SSE
Meteor 1-12 Rocket 4.3 20:29:24 10° S 20:35:08 83° E 20:41:02 10° N
Cosmos 1346 Rocket 4.1 20:33:46 10° NNW 20:37:33 43° W 20:41:22 10° SSW
Helios 1B rocket 4.1 20:33:49 10° N 20:37:40 38° WNW 20:41:28 10° SW
Cosmos 1763 Rocket 4.0 20:39:20 10° SSE 20:43:53 34° E 20:48:26 10° NE
Cosmos 2061 Rocket 4.4 20:39:32 10° SSE 20:45:23 42° E 20:51:12 10° NNE
Cosmos 1697 Rocket 2.6 20:40:32 10° SSW 20:46:11 83° ESE 20:51:51 10° NNE
Cosmos 2150 Rocket 4.0 20:41:13 10° NNW 20:46:21 68° ENE 20:51:18 11° SSE
Tiangong 1 1.1 20:45:00 10° WNW 20:48:06 70° NNE 20:49:40 26° E
Cosmos 1939 Rocket 4.2 20:47:20 19° ESE 20:48:54 24° ENE 20:52:16 10° NNE
Cosmos 1743 3.4 20:45:25 10° SSE 20:48:59 34° E 20:52:34 10° NNE
Cosmos 1459 Rocket 4.1 20:46:44 10° SSE 20:52:31 49° E 20:58:23 10° NNE
Cosmos 1066 Rocket 4.3 20:49:17 10° N 20:54:59 67° E 21:00:45 10° SSE
Cosmos 1898 Rocket 3.5 20:51:22 10° NNW 20:56:41 89° ENE 21:01:43 11° SSE
SL-16 R/B 3.2 21:00:04 22° ESE 21:00:25 22° E 21:04:42 10° NE
Cosmos 1606 Rocket 4.0 21:01:24 20° SSE 21:03:56 39° E 21:08:06 10° NNE
Cosmos 2058 Rocket 4.1 21:03:44 25° E 21:03:59 25° E 21:07:42 10° NNE
Cosmos 468 Rocket 4.3 20:59:39 10° SSW 21:04:44 69° WNW 21:09:52 10° NNE
BREEZE-M DEB (TANK) 4.2 20:47:48 10° WSW 21:07:22 89° SSE 21:12:09 11° ENE
Cosmos 841 Rocket 3.6 21:03:59 10° S 21:09:04 52° ESE 21:14:07 10° NNE
Cosmos 1980 Rocket 2.1 21:04:58 10° SSW 21:10:37 80° ESE 21:16:21 10° NNE
DELTA 2 R/B (1) 4.3 21:06:30 10° W 21:11:44 42° SSW 21:14:35 24° SSE
ASTEX 1 4.3 21:07:47 10° NNE 21:12:04 28° E 21:12:21 28° E
RESURS DK-1 2.5 21:11:56 10° NNW 21:16:05 74° WSW 21:18:10 28° SSE
Resurs 01 Rocket 4.4 21:13:19 10° SW 21:16:18 18° W 21:19:19 10° NW
H-2A R/B 4.1 21:14:04 10° S 21:17:44 40° W 21:21:28 10° NNW
Cosmos 1726 Rocket 3.5 21:24:43 38° SSE 21:26:09 60° E 21:30:30 10° NNE
Cosmos 1842 4.0 21:24:45 10° N 21:27:49 35° NE 21:27:49 35° NE
Cosmos 1666 3.4 21:29:44 37° NE 21:29:44 37° NE 21:32:27 10° NNE
YAOGAN 6 4.4 21:30:59 21° NE 21:30:59 21° NE 21:32:50 10° NNE
SL-08 R/B 4.4 21:29:48 20° S 21:34:10 64° E 21:40:15 10° NNE
Cosmos 2263 Rocket 3.5 21:31:43 10° N 21:36:05 23° NE 21:36:35 23° ENE
Cosmos 1802 Rocket 4.1 21:32:36 10° S 21:39:00 82° W 21:45:29 10° N
Lacrosse 5 2.6 21:35:18 10° NW 21:40:06 45° SW 21:41:56 31° S
Cosmos 1825 Rocket 3.8 21:38:15 10° NNW 21:42:37 65° W 21:44:13 37° SSW
Cosmos 2016 Rocket 3.9 21:37:38 10° S 21:43:46 89° W 21:50:01 10° N
Cosmos 2322 Rocket 2.1 21:43:34 39° SSE 21:45:26 59° ESE 21:50:57 10° NNE
Cosmos 1340 3.1 21:43:23 10° NNW 21:47:07 58° W 21:47:32 54° SW
SPOT 5 2.9 21:47:47 58° E 21:48:01 59° ENE 21:52:42 10° N
Envisat 3.0 21:49:39 45° S 21:51:13 78° WSW 21:56:20 10° NNW
MetOp-A 4.1 21:52:04 58° E 21:52:34 61° ENE 21:57:51 10° N
Cosmos 2228 3.9 21:55:49 38° NNE 21:55:49 38° NNE 21:58:37 10° NNE
H-2A R/B 2.0 21:55:01 70° N 21:55:01 70° N 21:58:45 10° NNW
Cosmos 1953 Rocket 3.8 21:50:30 10° NNW 21:54:56 66° W 21:55:42 54° SW
Nimbus 7 Rocket 4.3 21:51:40 10° NNE 21:57:46 85° ESE 22:01:08 28° SSW
Meteor 2-9 Rocket 4.0 21:57:29 43° S 21:59:24 89° W 22:04:49 10° N
Cosmos 1375 Rocket 4.4 21:54:15 10° SSW 22:00:50 84° ESE 22:07:28 10° NNE
Terra 4.0 22:03:43 14° NE 22:03:43 14° NE 22:05:04 10° NNE
Meteor 1-15 Rocket 4.2 22:02:11 46° S 22:04:04 87° ESE 22:09:58 10° N
USA 245 4.5 22:06:08 60° E 22:06:41 62° ENE 22:12:53 10° N
ERS-1 Rocket 4.2 22:08:47 26° SW 22:10:53 37° W 22:15:33 10° NNW
Cosmos 1864 Rocket 4.4 22:10:22 42° SSW 22:12:34 80° W 22:18:44 10° N
Cosmos 1758 Rocket 4.3 22:08:59 10° NNW 22:13:08 46° W 22:13:13 46° W
BREEZE-M DEB (TANK) 3.7 22:15:58 10° NW 22:17:23 35° NW 22:17:23 35° NW
H-2A R/B 3.5 22:25:29 25° NNE 22:25:29 25° NNE 22:28:02 10° N
Meteor 2-17 Rocket 4.3 22:24:20 83° ENE 22:24:20 83° ENE 22:30:16 10° N
BREEZE-M DEB (TANK) 4.3 22:09:36 10° SW 22:24:16 88° NW 22:25:52 51° NE
Tsikada Rocket 4.2 22:22:54 10° NNW 22:29:15 68° W 22:30:24 57° SW
ARGOS 3.5 22:39:04 60° NNW 22:39:04 60° NNW 22:43:27 10° NNW
USA 215 4.2 22:37:02 32° NE 22:38:18 35° NNE 22:44:07 10° NNW
SPOT 1/Viking Rocket 4.2 22:44:10 53° NW 22:44:10 53° NW 22:48:15 10° NNW
SL-16 R/B 3.0 22:41:42 30° WSW 22:44:07 48° WNW 22:49:37 10° NNE
Cosmos 1125 Rocket 4.5 22:39:57 10° NNW 22:44:17 42° W 22:44:17 42° W
Cosmos 2360 Rocket 3.9 22:58:32 24° NNE 22:58:32 24° NNE 23:00:39 10° NNE
Cosmos 2263 Rocket 3.6 23:14:55 10° NNW 23:18:16 34° NW 23:18:16 34° NW
Cosmos 2322 Rocket 4.5 23:25:51 10° W 23:29:54 20° NW 23:33:58 10° N
Terra 4.3 23:42:37 19° NNW 23:42:37 19° NNW 23:44:00 10° NNW
